FW9588 Weather Reports


time (UTC)temp
C
wind
direction
speed
KPH
gust
KPH
rain 1hr
cm
rain 24hr
cm
rain mn
cm
humidity
%
barometer
mb
20260906100342 18 48 0.0 0.0 0.00 0.00 0.00 99 1018.1
20260906095837 18 48 0.0 0.0 0.00 0.00 0.00 98 1018.0
20260906095333 18 48 0.0 0.0 0.00 0.00 0.00 98 1017.7
20260906094832 18 48 0.0 0.0 0.00 0.00 0.00 98 1018.1
20260906094327 18 49 0.0 0.0 0.00 0.00 0.00 98 1017.8
20260906093823 18 49 0.0 0.0 0.00 0.00 0.00 98 1018.0
20260906093319 18 49 0.0 0.0 0.00 0.00 0.00 98 1017.8
20260906092814 18 49 0.0 0.0 0.00 0.00 0.00 98 1017.6
20260906092308 18 49 0.0 0.0 0.00 0.00 0.00 98 1017.7
20260906091804 18 49 0.0 0.0 0.00 0.00 0.00 97 1017.8
20260906091300 18 49 0.0 0.0 0.00 0.00 0.00 97 1018.0
20260906090756 19 49 0.0 0.0 0.00 0.00 0.00 97 1017.9
20260906090255 19 50 0.0 0.0 0.00 0.00 0.00 97 1017.8
20260906085754 19 52 0.0 0.0 0.00 0.00 0.00 97 1017.8
20260906085253 19 52 0.0 0.0 0.00 0.00 0.00 97 1017.7
20260906084743 19 51 0.0 0.0 0.00 0.00 0.00 97 1017.8
20260906084242 19 51 0.0 0.0 0.00 0.00 0.00 96 1017.7
20260906083737 19 55 0.0 0.0 0.00 0.00 0.00 96 1017.6
20260906083233 20 55 0.0 0.0 0.00 0.00 0.00 96 1017.5
20260906082728 20 55 0.0 0.0 0.00 0.00 0.00 96 1017.6
20260906082223 20 55 0.0 0.0 0.00 0.00 0.00 96 1017.6
20260906081719 20 56 0.0 0.0 0.00 0.00 0.00 95 1017.4
20260906081213 20 57 0.0 0.0 0.00 0.00 0.00 95 1017.2
20260906080710 20 60 0.0 0.0 0.00 0.00 0.00 94 1017.7
20260906080206 20 60 0.0 0.0 0.00 0.00 0.00 94 1017.4
20260906075700 20 50 0.0 0.0 0.00 0.00 0.00 94 1017.6
20260906075154 20 48 0.0 0.0 0.00 0.00 0.00 94 1017.3
20260906074650 20 63 0.0 0.0 0.00 0.00 0.00 93 1017.3
20260906074149 20 63 0.0 0.0 0.00 0.00 0.00 93 1017.5
20260906073644 20 65 0.0 0.0 0.00 0.00 0.00 93 1017.3
20260906073139 21 66 0.0 0.0 0.00 0.00 0.00 93 1017.4
20260906072634 21 66 0.0 0.0 0.00 0.00 0.00 93 1017.4
20260906072130 21 65 0.0 0.0 0.00 0.00 0.00 93 1017.4
20260906071627 21 78 0.0 0.0 0.00 0.00 0.00 93 1017.3
20260906071127 21 90 0.0 0.0 0.00 0.00 0.00 93 1017.5
20260906070623 21 36 0.0 0.0 0.00 0.00 0.00 93 1017.7
20260906070118 21 38 0.0 0.0 0.00 0.00 0.00 92 1017.7
20260906065618 21 65 0.0 0.0 0.00 0.00 0.00 92 1017.6
20260906065114 21 33 0.0 0.0 0.00 0.00 0.00 92 1017.5
20260906064609 21 26 0.0 1.6 0.00 0.00 0.00 92 1017.6
20260906064104 21 34 0.0 0.0 0.00 0.00 0.00 92 1017.5
20260906063559 21 34 0.0 0.0 0.00 0.00 0.00 92 1017.6
20260906063055 21 33 0.0 0.0 0.00 0.00 0.00 92 1017.6
20260906062550 21 67 0.0 0.0 0.00 0.00 0.00 92 1017.6
20260906062044 21 38 0.0 0.0 0.00 0.00 0.00 92 1017.4
20260906061541 21 48 0.0 0.0 0.00 0.00 0.00 92 1017.5
20260906061040 21 55 0.0 0.0 0.00 0.00 0.00 92 1017.6
20260906060536 22 65 0.0 0.0 0.00 0.00 0.00 92 1017.5
20260906060034 22 8 0.0 0.0 0.00 0.00 0.00 92 1017.3
20260906055529 22 9 0.0 0.0 0.00 0.00 0.00 92 1017.2
20260906055024 22 9 0.0 0.0 0.00 0.00 0.00 92 1017.2
20260906054524 22 11 0.0 0.0 0.00 0.00 0.00 92 1017.0
20260906054020 22 16 0.0 0.0 0.00 0.00 0.00 92 1017.1
20260906053516 22 16 0.0 0.0 0.00 0.00 0.00 92 1017.0
20260906053011 22 16 0.0 0.0 0.00 0.00 0.00 92 1017.0
20260906052507 22 16 0.0 0.0 0.00 0.00 0.00 92 1017.0
20260906052004 22 16 0.0 0.0 0.00 0.00 0.00 92 1016.9
20260906051459 22 16 0.0 0.0 0.00 0.00 0.00 91 1017.0
20260906050955 22 8 0.0 0.0 0.00 0.00 0.00 91 1017.0
20260906050454 22 8 0.0 0.0 0.00 0.00 0.00 91 1016.8
20260906045954 22 8 0.0 0.0 0.00 0.00 0.00 91 1017.0
20260906045452 22 1 0.0 0.0 0.00 0.00 0.00 91 1016.8
20260906044949 22 1 0.0 0.0 0.00 0.00 0.00 90 1016.8
20260906044444 22 0 0.0 0.0 0.00 0.00 0.00 91 1016.8
20260906043939 22 0 0.0 0.0 0.00 0.00 0.00 91 1016.8
20260906043435 22 0 0.0 0.0 0.00 0.00 0.00 91 1017.0
20260906042931 22 0 0.0 0.0 0.00 0.00 0.00 90 1016.9
20260906042429 22 0 0.0 0.0 0.00 0.00 0.00 90 1016.8
20260906041919 22 0 0.0 0.0 0.00 0.00 0.00 90 1016.8
20260906041415 22 0 0.0 0.0 0.00 0.00 0.00 90 1016.8
20260906040914 22 0 0.0 0.0 0.00 0.00 0.00 90 1016.7
20260906040410 22 0 0.0 0.0 0.00 0.00 0.00 90 1017.0
20260906035905 22 0 0.0 0.0 0.00 0.00 0.00 90 1016.7
20260906035401 22 0 0.0 0.0 0.00 0.00 0.00 90 1016.8
20260906034856 22 0 0.0 0.0 0.00 0.00 0.00 90 1016.6
20260906034350 22 0 0.0 0.0 0.00 0.00 0.00 90 1016.8
20260906033846 22 2 0.0 0.0 0.00 0.00 0.00 90 1016.5
20260906033345 22 2 0.0 0.0 0.00 0.00 0.00 89 1016.5
20260906032842 22 2 0.0 0.0 0.00 0.00 0.00 89 1016.5
20260906032337 22 2 0.0 0.0 0.00 0.00 0.00 89 1016.6
20260906031832 22 2 0.0 0.0 0.00 0.00 0.00 89 1016.8
20260906031328 22 2 0.0 0.0 0.00 0.00 0.00 89 1016.5
20260906030827 22 2 0.0 0.0 0.00 0.00 0.00 89 1016.5
20260906030323 22 2 0.0 0.0 0.00 0.00 0.00 89 1016.5
20260906025817 22 2 0.0 0.0 0.00 0.00 0.00 89 1016.5
20260906025311 22 2 0.0 0.0 0.00 0.00 0.00 89 1016.5
20260906024810 22 2 0.0 0.0 0.00 0.00 0.00 89 1016.5
20260906024309 22 2 0.0 0.0 0.00 0.00 0.00 89 1016.5
20260906023805 22 359 0.0 0.0 0.00 0.00 0.00 88 1016.4
20260906023301 22 15 0.0 0.0 0.00 0.00 0.00 88 1016.4
20260906022756 22 15 0.0 0.0 0.00 0.00 0.00 88 1016.4
20260906022251 22 16 0.0 0.0 0.00 0.00 0.00 88 1016.4
20260906021747 22 15 0.0 0.0 0.00 0.00 0.00 88 1016.3
20260906021246 22 18 0.0 0.0 0.00 0.00 0.00 88 1016.3
20260906020741 22 19 0.0 0.0 0.00 0.00 0.00 88 1016.1
20260906020241 22 19 0.0 0.0 0.00 0.00 0.00 88 1016.2
20260906015735 23 1 0.0 0.0 0.00 0.00 0.00 88 1016.0
20260906015234 23 39 0.0 0.0 0.00 0.00 0.00 87 1016.0
20260906014729 23 43 0.0 0.0 0.00 0.00 0.00 88 1016.0
20260906014224 23 68 0.0 0.0 0.00 0.00 0.00 88 1016.0
20260906013721 23 32 0.0 0.0 0.00 0.00 0.00 88 1015.8
20260906013220 23 357 0.0 0.0 0.00 0.00 0.00 88 1016.1
20260906012715 23 47 0.0 0.0 0.00 0.00 0.00 88 1015.6
20260906012210 23 17 0.0 0.0 0.00 0.00 0.00 88 1015.9
20260906011705 23 47 0.0 0.0 0.00 0.00 0.00 88 1015.6
20260906011159 23 56 0.0 1.6 0.00 0.00 0.00 88 1015.6
20260906010655 23 17 0.0 0.0 0.00 0.00 0.00 88 1015.6
20260906010152 23 32 0.0 0.0 0.00 0.00 0.00 88 1015.8
20260906005651 23 29 0.0 1.6 0.00 0.00 0.00 88 1015.6
20260906005150 23 31 1.6 1.6 0.00 0.00 0.00 88 1015.6
20260906004649 23 20 1.6 1.6 0.00 0.00 0.00 88 1015.5
20260906004145 23 20 1.6 1.6 0.00 0.00 0.00 88 1015.2
20260906003640 23 27 3.2 3.2 0.00 0.00 0.00 88 1015.0
20260906003135 23 38 0.0 0.0 0.00 0.00 0.00 89 1015.5
20260906002630 23 69 0.0 0.0 0.00 0.00 0.00 88 1015.3
20260906002125 23 29 0.0 0.0 0.00 0.00 0.00 88 1015.3
20260906001621 24 15 0.0 0.0 0.00 0.00 0.00 88 1015.1
20260906001120 24 52 0.0 0.0 0.00 0.00 0.00 88 1015.1
20260906000616 24 83 0.0 1.6 0.00 0.00 0.00 88 1014.9
20260906000112 25 5 1.6 3.2 0.00 0.00 0.00 88 1014.9
20260905235610 25 43 0.0 0.0 0.00 0.00 0.00 88 1014.9
20260905235106 25 10 0.0 0.0 0.00 0.00 0.00 87 1014.9
20260905234601 25 30 0.0 0.0 0.00 0.00 0.00 87 1014.8
20260905234056 25 13 0.0 0.0 0.00 0.00 0.00 87 1014.8
20260905233556 25 31 0.0 1.6 0.00 0.00 0.00 86 1014.8
20260905233050 25 1 1.6 1.6 0.00 0.00 0.00 85 1014.7
20260905232546 26 46 0.0 0.0 0.00 0.00 0.00 85 1014.5
20260905232041 26 21 1.6 1.6 0.00 0.00 0.00 85 1014.4
20260905231536 26 5 1.6 1.6 0.00 0.00 0.00 85 1014.4
20260905231033 26 31 0.0 0.0 0.00 0.00 0.00 84 1014.1
20260905230532 26 43 0.0 1.6 0.00 0.00 0.00 83 1014.3
20260905230031 26 30 0.0 0.0 0.00 0.00 0.00 82 1014.3
20260905225525 26 19 1.6 1.6 0.00 0.00 0.00 83 1014.3
20260905225021 26 11 0.0 1.6 0.00 0.00 0.00 82 1014.1
20260905224515 27 43 1.6 1.6 0.00 0.00 0.00 81 1014.4
20260905224014 27 4 0.0 1.6 0.00 0.00 0.00 80 1014.2
20260905223512 27 358 0.0 1.6 0.00 0.00 0.00 78 1013.8
20260905223008 27 37 0.0 1.6 0.00 0.00 0.00 77 1013.9
20260905222502 27 13 0.0 0.0 0.00 0.00 0.00 78 1014.0
20260905221957 27 22 0.0 0.0 0.00 0.00 0.00 79 1013.8
20260905221454 27 260 1.6 1.6 0.00 0.00 0.00 80 1013.8
20260905220949 27 13 0.0 0.0 0.00 0.00 0.00 80 1013.7
20260905220445 27 11 0.0 0.0 0.00 0.00 0.00 79 1013.6
20260905215944 27 23 0.0 0.0 0.00 0.00 0.00 79 1013.6
20260905215440 28 27 3.2 4.8 0.00 0.00 0.00 77 1013.5
20260905214937 28 1 4.8 4.8 0.00 0.00 0.00 76 1013.4
20260905214432 28 2 0.0 0.0 0.00 0.00 0.00 76 1013.4
20260905213932 27 123 1.6 3.2 0.00 0.00 0.00 79 1013.6
20260905213428 28 359 0.0 1.6 0.00 0.00 0.00 78 1013.5
20260905212923 28 6 1.6 1.6 0.00 0.00 0.00 78 1013.6
20260905212418 28 349 0.0 0.0 0.00 0.00 0.00 76 1013.4
20260905211917 28 106 1.6 1.6 0.00 0.00 0.00 76 1013.5
20260905211412 29 1 3.2 3.2 0.00 0.00 0.00 76 1013.3
20260905210903 30 1 1.6 1.6 0.00 0.00 0.00 71 1013.5
20260905210403 30 3 0.0 0.0 0.00 0.00 0.00 73 1013.5
20260905205902 29 199 1.6 1.6 0.00 0.00 0.00 74 1013.5
20260905205357 29 139 4.8 4.8 0.00 0.00 0.00 74 1013.5
20260905204856 29 349 3.2 4.8 0.00 0.00 0.00 76 1013.4
20260905204353 29 22 1.6 3.2 0.00 0.00 0.00 74 1013.3
20260905203851 28 50 0.0 1.6 0.00 0.00 0.00 77 1013.5
20260905203347 30 351 0.0 0.0 0.00 0.00 0.00 75 1013.5
20260905202842 29 212 0.0 1.6 0.00 0.00 0.00 74 1013.6
20260905202337 29 7 0.0 0.0 0.00 0.00 0.00 76 1013.5
20260905201833 30 47 0.0 0.0 0.00 0.00 0.00 74 1013.2
20260905201328 30 12 1.6 1.6 0.00 0.00 0.00 71 1013.7
20260905200822 30 182 0.0 0.0 0.00 0.00 0.00 71 1013.5
20260905200319 30 349 1.6 1.6 0.00 0.00 0.00 73 1013.4
20260905195816 31 352 3.2 4.8 0.00 0.00 0.00 70 1013.5
20260905195311 31 12 1.6 3.2 0.00 0.00 0.00 71 1013.6
20260905194807 30 253 0.0 1.6 0.00 0.00 0.00 71 1013.7
20260905194301 30 103 0.0 0.0 0.00 0.00 0.00 73 1013.4
20260905193800 30 10 0.0 1.6 0.00 0.00 0.00 75 1013.8
20260905193255 30 339 4.8 4.8 0.00 0.00 0.00 73 1013.7
20260905192750 30 147 1.6 3.2 0.00 0.00 0.00 75 1013.6
20260905192247 30 124 1.6 3.2 0.00 0.00 0.00 74 1013.7
20260905191746 29 1 0.0 0.0 0.00 0.00 0.00 76 1013.8
20260905191244 30 1 3.2 4.8 0.00 0.00 0.00 74 1013.8
20260905190743 30 207 6.4 9.7 0.00 0.00 0.00 72 1013.9
20260905190243 30 115 0.0 0.0 0.00 0.00 0.00 74 1013.7
20260905185742 30 356 1.6 1.6 0.00 0.00 0.00 75 1013.6
20260905185237 30 83 1.6 3.2 0.00 0.00 0.00 72 1013.9
20260905184730 31 4 0.0 1.6 0.00 0.00 0.00 70 1013.9
20260905184230 30 345 3.2 3.2 0.00 0.00 0.00 73 1014.0
20260905183723 30 7 0.0 0.0 0.00 0.00 0.00 76 1014.1
20260905183219 29 23 0.0 0.0 0.00 0.00 0.00 77 1013.9
20260905182713 30 22 0.0 0.0 0.00 0.00 0.00 76 1014.0
20260905182213 30 308 0.0 1.6 0.00 0.00 0.00 75 1014.0
20260905181708 30 4 0.0 0.0 0.00 0.00 0.00 77 1013.9
20260905181207 30 147 0.0 0.0 0.00 0.00 0.00 75 1014.1
20260905180701 30 70 0.0 0.0 0.00 0.00 0.00 76 1014.0
20260905180157 29 336 0.0 1.6 0.00 0.00 0.00 78 1014.2
20260905175656 28 347 0.0 0.0 0.00 0.00 0.00 80 1014.2
20260905175151 28 335 0.0 0.0 0.00 0.00 0.00 80 1014.3
20260905174647 30 298 0.0 1.6 0.00 0.00 0.00 77 1014.3
20260905174142 28 193 3.2 3.2 0.00 0.00 0.00 78 1014.3
20260905173638 28 77 0.0 0.0 0.00 0.00 0.00 81 1014.5
20260905173134 28 301 3.2 3.2 0.00 0.00 0.00 82 1014.4
20260905172633 28 85 0.0 0.0 0.00 0.00 0.00 81 1014.4
20260905172128 28 110 0.0 0.0 0.00 0.00 0.00 81 1014.6
20260905171624 28 335 0.0 0.0 0.00 0.00 0.00 83 1014.4
20260905171120 27 163 1.6 1.6 0.00 0.00 0.00 83 1014.5
20260905170616 28 120 0.0 1.6 0.00 0.00 0.00 81 1014.7
20260905170111 28 149 0.0 0.0 0.00 0.00 0.00 82 1014.6
20260905165605 28 235 0.0 0.0 0.00 0.00 0.00 82 1014.7
20260905165101 28 182 3.2 3.2 0.00 0.00 0.00 80 1014.7
20260905164555 28 138 1.6 3.2 0.00 0.00 0.00 82 1014.9
20260905164050 27 138 0.0 0.0 0.00 0.00 0.00 83 1014.8
20260905163546 27 261 1.6 3.2 0.00 0.00 0.00 85 1014.6
20260905163042 26 19 1.6 1.6 0.00 0.00 0.00 86 1014.8
20260905162538 26 118 0.0 0.0 0.00 0.00 0.00 86 1014.8
20260905162037 26 109 0.0 0.0 0.00 0.00 0.00 86 1014.8
20260905161532 26 71 0.0 0.0 0.00 0.00 0.00 88 1014.8
20260905161030 26 84 0.0 0.0 0.00 0.00 0.00 88 1014.8
20260905160528 26 91 0.0 0.0 0.00 0.00 0.00 88 1014.6
20260905160028 26 87 1.6 1.6 0.00 0.00 0.00 87 1014.8
20260905155528 26 51 0.0 0.0 0.00 0.00 0.00 86 1014.9
20260905155027 26 5 0.0 0.0 0.00 0.00 0.00 86 1014.5
20260905154522 26 214 0.0 0.0 0.00 0.00 0.00 87 1014.8
20260905154018 26 79 0.0 0.0 0.00 0.00 0.00 87 1014.8
20260905153514 26 74 0.0 0.0 0.00 0.00 0.00 88 1014.8
20260905153014 26 44 0.0 0.0 0.00 0.00 0.00 89 1014.8
20260905152514 26 86 0.0 0.0 0.00 0.00 0.00 89 1014.7
20260905152008 26 83 0.0 0.0 0.00 0.00 0.00 90 1014.8
20260905151504 25 102 0.0 0.0 0.00 0.00 0.00 90 1014.6
20260905150959 25 46 0.0 0.0 0.00 0.00 0.00 90 1014.7
20260905150454 25 34 0.0 0.0 0.00 0.00 0.00 91 1014.5
20260905145950 25 36 0.0 1.6 0.00 0.00 0.00 91 1014.5
20260905145445 25 133 1.6 1.6 0.00 0.00 0.00 91 1014.5
20260905144944 25 93 0.0 0.0 0.00 0.00 0.00 92 1014.6
20260905144440 25 64 0.0 0.0 0.00 0.00 0.00 92 1014.7
20260905143938 25 60 0.0 0.0 0.00 0.00 0.00 92 1014.8
20260905143432 25 43 0.0 0.0 0.00 0.00 0.00 92 1014.9
20260905142927 25 76 0.0 0.0 0.00 0.00 0.00 92 1014.6
20260905142426 24 51 0.0 0.0 0.00 0.00 0.00 93 1014.8
20260905141922 24 27 0.0 0.0 0.00 0.00 0.00 93 1014.6
20260905141416 24 100 0.0 0.0 0.00 0.00 0.00 93 1014.5
20260905140912 24 60 0.0 0.0 0.00 0.00 0.00 93 1014.6
20260905140407 24 291 1.6 3.2 0.00 0.00 0.00 93 1014.6
20260905135906 24 79 0.0 0.0 0.00 0.00 0.00 93 1014.4
20260905135402 23 86 0.0 0.0 0.00 0.00 0.00 93 1014.5
20260905134857 23 50 0.0 0.0 0.00 0.00 0.00 94 1014.4
20260905134356 23 37 0.0 0.0 0.00 0.00 0.00 94 1014.5
20260905133850 23 36 0.0 0.0 0.00 0.00 0.00 95 1014.4
20260905133346 23 37 0.0 0.0 0.00 0.00 0.00 95 1014.4
20260905132845 23 39 0.0 0.0 0.00 0.00 0.00 95 1014.3
20260905132341 23 32 0.0 0.0 0.00 0.00 0.00 96 1014.4
20260905131840 23 32 0.0 0.0 0.00 0.00 0.00 96 1014.3
20260905131336 23 30 0.0 0.0 0.00 0.00 0.00 96 1014.2
20260905130831 23 27 0.0 0.0 0.00 0.00 0.00 96 1014.1
20260905130330 23 29 0.0 0.0 0.00 0.00 0.00 96 1014.0
20260905125825 23 12 1.6 1.6 0.00 0.00 0.00 96 1014.0
20260905125320 23 57 0.0 0.0 0.00 0.00 0.00 96 1014.0
20260905124816 23 37 0.0 0.0 0.00 0.00 0.00 95 1013.8
20260905124312 23 212 1.6 1.6 0.00 0.00 0.00 95 1013.9
20260905123807 22 69 0.0 0.0 0.00 0.00 0.00 95 1013.8
20260905123304 22 63 0.0 0.0 0.00 0.00 0.00 95 1013.7
20260905122803 22 76 0.0 0.0 0.00 0.00 0.00 95 1013.8
20260905122306 22 91 0.0 0.0 0.00 0.00 0.00 95 1013.8
20260905121759 22 90 0.0 1.6 0.00 0.00 0.00 94 1013.8
20260905121255 22 99 0.0 0.0 0.00 0.00 0.00 94 1013.6
20260905120753 22 143 3.2 3.2 0.00 0.00 0.00 94 1013.5
20260905120253 22 147 1.6 3.2 0.00 0.00 0.00 94 1013.5
20260905115749 22 110 0.0 0.0 0.00 0.00 0.00 94 1013.8
20260905115248 22 110 0.0 0.0 0.00 0.00 0.00 94 1013.5
20260905114748 22 110 0.0 0.0 0.00 0.00 0.00 94 1013.6
20260905114247 22 137 1.6 1.6 0.00 0.00 0.00 94 1013.4
20260905113746 22 138 1.6 3.2 0.00 0.00 0.00 93 1013.3
20260905113242 22 147 1.6 3.2 0.00 0.00 0.00 93 1013.2
20260905112737 22 113 1.6 3.2 0.00 0.00 0.00 93 1013.5
20260905112232 22 145 3.2 3.2 0.00 0.00 0.00 93 1013.2
20260905111727 22 152 3.2 3.2 0.00 0.00 0.00 94 1013.3
20260905111221 22 164 4.8 4.8 0.00 0.00 0.00 94 1013.1
20260905110720 22 118 1.6 1.6 0.00 0.00 0.00 95 1013.3
20260905110215 22 7 0.0 1.6 0.00 0.00 0.00 95 1013.2
20260905105710 22 157 0.0 0.0 0.00 0.00 0.00 95 1013.1
20260905105208 22 104 1.6 1.6 0.00 0.00 0.00 95 1013.0
20260905104704 22 181 4.8 4.8 0.00 0.00 0.00 95 1012.8
20260905104200 22 169 4.8 4.8 0.00 0.00 0.00 95 1012.8
20260905103655 22 162 3.2 3.2 0.00 0.00 0.00 95 1013.1
20260905103150 22 102 1.6 1.6 0.00 0.00 0.00 95 1013.2
20260905102646 22 96 0.0 0.0 0.00 0.00 0.00 96 1013.0
20260905102143 22 94 0.0 0.0 0.00 0.00 0.00 96 1013.3
20260905101641 22 61 0.0 0.0 0.00 0.00 0.00 96 1012.8
20260905101139 22 39 0.0 0.0 0.00 0.00 0.00 96 1013.2
20260905100636 22 103 0.0 0.0 0.00 0.00 0.00 96 1013.0